LOT3ML EPWA-EBBR

Flight info

Callsign LOT3ML
Flight time 1h 44m
Altitude 38000
Route LOLSI DCT DIBLO DCT INDIG DCT GOVEN DCT MAG DCT TOLGI DCT ABAMI Z717 NEREL/N0403F240 T855 AGENI/N0369F180 T855 BATTY
Aircraft B38M/M-SDE1FGHILORVWXY/HB1

Departure

Time 2026-05-04 15:33
Airport Warsaw Chopin Airport (EPWA)

Arrival

Time 2026-05-04 17:17
Airport Brussels Airport (EBBR)
Time Latitude Longitude Altitude Speed Heading
2026-05-04 14:45 52.16914 20.97224 341 ft 0 kts 76°
2026-05-04 15:08 52.16913 20.97221 337 ft 2 kts 76°
2026-05-04 15:08 52.16907 20.97180 338 ft 4 kts 76°
2026-05-04 15:08 52.16901 20.97137 336 ft 3 kts 76°
2026-05-04 15:09 52.16897 20.97103 337 ft 4 kts 97°
2026-05-04 15:09 52.16907 20.97065 336 ft 4 kts 133°
2026-05-04 15:09 52.16924 20.97044 336 ft 0 kts 152°
2026-05-04 15:12 52.16921 20.97046 336 ft 1 kts 152°
2026-05-04 15:13 52.16901 20.97065 336 ft 8 kts 152°
2026-05-04 15:13 52.16822 20.97133 338 ft 16 kts 152°
2026-05-04 15:13 52.16718 20.97224 340 ft 18 kts 152°
2026-05-04 15:13 52.16604 20.97325 341 ft 20 kts 144°
2026-05-04 15:14 52.16532 20.97520 339 ft 21 kts 115°
2026-05-04 15:14 52.16470 20.97746 339 ft 23 kts 114°
2026-05-04 15:14 52.16402 20.97987 342 ft 24 kts 115°
2026-05-04 15:14 52.16347 20.98177 341 ft 16 kts 114°
2026-05-04 15:15 52.16300 20.98344 348 ft 14 kts 115°
2026-05-04 15:15 52.16268 20.98446 339 ft 8 kts 128°
2026-05-04 15:15 52.16234 20.98466 341 ft 6 kts 188°
2026-05-04 15:16 52.16211 20.98453 341 ft 0 kts 202°
2026-05-04 15:22 52.16188 20.98437 339 ft 3 kts 203°
2026-05-04 15:23 52.16178 20.98430 341 ft 0 kts 204°
2026-05-04 15:31 52.16171 20.98426 340 ft 4 kts 204°
2026-05-04 15:31 52.16122 20.98363 338 ft 9 kts 255°
2026-05-04 15:32 52.16150 20.98226 338 ft 25 kts 294°
2026-05-04 15:32 52.16679 20.96343 348 ft 148 kts 295°
2026-05-04 15:33 52.17656 20.93074 1300 ft 168 kts 294°
2026-05-04 15:34 52.18583 20.87148 3246 ft 202 kts 263°
2026-05-04 15:34 52.18353 20.84775 3816 ft 220 kts 258°
2026-05-04 15:34 52.18341 20.79554 5371 ft 243 kts 279°
2026-05-04 15:35 52.19180 20.73946 5817 ft 262 kts 283°
2026-05-04 15:35 52.19514 20.70999 5910 ft 260 kts 268°
2026-05-04 15:35 52.19139 20.68151 5970 ft 259 kts 251°
2026-05-04 15:36 52.17999 20.62591 6468 ft 258 kts 251°
2026-05-04 15:36 52.17410 20.59824 7473 ft 261 kts 251°
2026-05-04 15:36 52.16794 20.56983 8413 ft 264 kts 250°
2026-05-04 15:37 52.16183 20.54193 9332 ft 267 kts 250°
2026-05-04 15:37 52.15559 20.51321 10200 ft 272 kts 252°
2026-05-04 15:37 52.15377 20.48155 10654 ft 294 kts 272°
2026-05-04 15:37 52.15520 20.44732 11097 ft 311 kts 271°
2026-05-04 15:38 52.15656 20.41158 11696 ft 321 kts 271°
2026-05-04 15:38 52.15800 20.37519 12566 ft 323 kts 271°
2026-05-04 15:38 52.15948 20.33847 13378 ft 327 kts 271°
2026-05-04 15:38 52.16097 20.30146 14168 ft 330 kts 271°
2026-05-04 15:39 52.16247 20.26400 14921 ft 333 kts 271°
2026-05-04 15:39 52.16397 20.22617 15659 ft 337 kts 271°
2026-05-04 15:39 52.16699 20.14927 17110 ft 343 kts 271°
2026-05-04 15:40 52.16850 20.11036 17810 ft 347 kts 271°
2026-05-04 15:40 52.17001 20.07092 18465 ft 351 kts 271°
2026-05-04 15:40 52.17154 20.03110 19022 ft 354 kts 272°
2026-05-04 15:40 52.17306 19.99073 19570 ft 359 kts 272°
2026-05-04 15:41 52.17458 19.94989 20115 ft 364 kts 272°
2026-05-04 15:41 52.17612 19.90856 20666 ft 367 kts 272°
2026-05-04 15:41 52.17690 19.86680 21182 ft 371 kts 264°
2026-05-04 15:41 52.17328 19.82509 21709 ft 374 kts 261°
2026-05-04 15:42 52.16958 19.78291 22213 ft 378 kts 261°
2026-05-04 15:42 52.16582 19.74034 22759 ft 382 kts 261°
2026-05-04 15:42 52.16197 19.69728 23276 ft 386 kts 261°
2026-05-04 15:42 52.15806 19.65383 23733 ft 389 kts 261°
2026-05-04 15:43 52.15412 19.61011 24183 ft 392 kts 261°
2026-05-04 15:43 52.15012 19.56612 24663 ft 393 kts 261°
2026-05-04 15:43 52.14610 19.52196 25129 ft 395 kts 261°
2026-05-04 15:43 52.14204 19.47761 25580 ft 397 kts 261°
2026-05-04 15:44 52.13795 19.43304 26015 ft 399 kts 261°
2026-05-04 15:44 52.13383 19.38842 26463 ft 401 kts 261°
2026-05-04 15:44 52.12966 19.34344 26902 ft 402 kts 261°
2026-05-04 15:44 52.12544 19.29826 27324 ft 405 kts 261°
2026-05-04 15:45 52.12119 19.25288 27740 ft 406 kts 261°
2026-05-04 15:45 52.11692 19.20743 28148 ft 408 kts 261°
2026-05-04 15:45 52.11260 19.16164 28537 ft 410 kts 261°
2026-05-04 15:45 52.10823 19.11565 28933 ft 412 kts 261°
2026-05-04 15:46 52.10383 19.06944 29316 ft 414 kts 261°
2026-05-04 15:46 52.09945 19.02368 29693 ft 416 kts 261°
2026-05-04 15:46 52.09498 18.97704 30050 ft 418 kts 261°
2026-05-04 15:46 52.09047 18.93026 30364 ft 420 kts 261°
2026-05-04 15:47 52.08591 18.88323 30685 ft 422 kts 261°
2026-05-04 15:47 52.08132 18.83606 30992 ft 423 kts 261°
2026-05-04 15:47 52.07669 18.78872 31306 ft 425 kts 261°
2026-05-04 15:47 52.07203 18.74120 31613 ft 426 kts 261°
2026-05-04 15:48 52.06734 18.69363 31919 ft 428 kts 261°
2026-05-04 15:48 52.06261 18.64585 32248 ft 428 kts 261°
2026-05-04 15:48 52.05312 18.55064 33110 ft 425 kts 261°
2026-05-04 15:49 52.04838 18.50337 33539 ft 423 kts 261°
2026-05-04 15:49 52.04364 18.45626 33941 ft 422 kts 261°
2026-05-04 15:49 52.03889 18.40931 34294 ft 421 kts 261°
2026-05-04 15:49 52.03412 18.36240 34608 ft 420 kts 261°
2026-05-04 15:50 52.02936 18.31560 34912 ft 420 kts 261°
2026-05-04 15:50 52.02458 18.26896 35197 ft 420 kts 261°
2026-05-04 15:50 52.01978 18.22223 35484 ft 419 kts 261°
2026-05-04 15:50 52.01496 18.17556 35765 ft 419 kts 261°
2026-05-04 15:51 52.01013 18.12885 36030 ft 419 kts 261°
2026-05-04 15:51 52.00530 18.08234 36289 ft 419 kts 261°
2026-05-04 15:51 52.00045 18.03573 36557 ft 419 kts 261°
2026-05-04 15:51 51.99734 17.98887 36796 ft 418 kts 271°
2026-05-04 15:52 51.99898 17.94191 37050 ft 417 kts 272°
2026-05-04 15:52 52.00024 17.89482 37221 ft 418 kts 272°
2026-05-04 15:52 52.00162 17.84768 37448 ft 418 kts 272°
2026-05-04 15:52 52.00305 17.80057 37664 ft 418 kts 272°
2026-05-04 15:53 52.00450 17.75346 37899 ft 418 kts 272°
2026-05-04 15:53 52.00593 17.70632 37947 ft 419 kts 272°
2026-05-04 15:53 52.00872 17.61283 37932 ft 416 kts 272°
2026-05-04 15:54 52.01146 17.51880 37929 ft 417 kts 272°
2026-05-04 15:54 52.01412 17.42478 37929 ft 417 kts 272°
2026-05-04 15:55 52.01671 17.33063 37925 ft 418 kts 272°
2026-05-04 15:55 52.01923 17.23633 37928 ft 418 kts 272°
2026-05-04 15:56 52.02166 17.14203 37925 ft 418 kts 271°
2026-05-04 15:56 52.02403 17.04761 37923 ft 418 kts 271°
2026-05-04 15:57 52.02632 16.95320 37927 ft 418 kts 271°
2026-05-04 15:57 52.02854 16.85885 37930 ft 418 kts 271°
2026-05-04 15:58 52.03068 16.76460 37925 ft 417 kts 271°
2026-05-04 15:58 52.03274 16.67038 37925 ft 417 kts 271°
2026-05-04 15:59 52.03472 16.57632 37927 ft 417 kts 271°
2026-05-04 15:59 52.03663 16.48225 37925 ft 416 kts 271°
2026-05-04 16:00 52.03846 16.38849 37933 ft 416 kts 271°
2026-05-04 16:00 52.04021 16.29457 37935 ft 415 kts 271°
2026-05-04 16:01 52.04189 16.20082 37934 ft 415 kts 271°
2026-05-04 16:01 52.04349 16.10719 37936 ft 415 kts 271°
2026-05-04 16:02 52.04502 16.01348 37934 ft 415 kts 271°
2026-05-04 16:03 52.04716 15.87355 37944 ft 415 kts 270°
2026-05-04 16:03 52.04851 15.77990 37938 ft 415 kts 270°
2026-05-04 16:04 52.04978 15.68605 37940 ft 415 kts 270°
2026-05-04 16:04 52.05154 15.54538 37941 ft 416 kts 270°
2026-05-04 16:05 52.05262 15.45149 37936 ft 416 kts 270°
2026-05-04 16:06 52.05411 15.31061 37931 ft 415 kts 270°
2026-05-04 16:07 52.05583 15.12284 37938 ft 416 kts 270°
2026-05-04 16:08 52.05730 14.93525 37936 ft 415 kts 270°
2026-05-04 16:09 52.05757 14.70090 37939 ft 415 kts 268°
2026-05-04 16:10 52.05562 14.51353 37938 ft 415 kts 268°
2026-05-04 16:11 52.05345 14.32608 37951 ft 415 kts 268°
2026-05-04 16:12 52.04988 14.06095 37948 ft 415 kts 268°
2026-05-04 16:13 52.04700 13.87366 37948 ft 415 kts 268°
2026-05-04 16:14 52.04382 13.68654 37952 ft 414 kts 268°
2026-05-04 16:16 52.03943 13.45272 37954 ft 415 kts 267°
2026-05-04 16:17 52.03459 13.21915 37943 ft 414 kts 267°
2026-05-04 16:18 52.03040 13.03310 37947 ft 414 kts 267°
2026-05-04 16:19 52.02473 12.79990 37949 ft 413 kts 266°
2026-05-04 16:20 52.01861 12.56675 37958 ft 413 kts 266°
2026-05-04 16:22 52.01201 12.33372 37964 ft 413 kts 266°
2026-05-04 16:23 52.00351 12.05433 37963 ft 413 kts 265°
2026-05-04 16:25 51.99339 11.77521 37975 ft 413 kts 262°
2026-05-04 16:26 51.97209 11.45093 37970 ft 413 kts 262°
2026-05-04 16:28 51.95655 11.21915 37972 ft 414 kts 262°
2026-05-04 16:29 51.93402 10.89464 37969 ft 414 kts 262°
2026-05-04 16:31 51.91736 10.66284 37981 ft 415 kts 261°
2026-05-04 16:32 51.89678 10.38515 37969 ft 415 kts 261°
2026-05-04 16:33 51.88266 10.19949 37972 ft 416 kts 261°
2026-05-04 16:34 51.87184 10.05990 37964 ft 417 kts 261°
2026-05-04 16:35 51.84965 9.78040 37949 ft 418 kts 260°
2026-05-04 16:36 51.83833 9.64045 37960 ft 418 kts 260°
2026-05-04 16:37 51.82397 9.50156 37957 ft 416 kts 253°
2026-05-04 16:38 51.79349 9.32093 37934 ft 417 kts 253°
2026-05-04 16:39 51.75487 9.09591 37941 ft 417 kts 252°
2026-05-04 16:40 51.72375 8.91663 37956 ft 417 kts 252°
2026-05-04 16:41 51.68434 8.69217 37965 ft 417 kts 252°
2026-05-04 16:43 51.64441 8.46765 37966 ft 417 kts 252°
2026-05-04 16:43 51.62027 8.33318 37969 ft 417 kts 252°
2026-05-04 16:45 51.57150 8.06464 37971 ft 417 kts 251°
2026-05-04 16:46 51.53042 7.84142 37968 ft 416 kts 251°
2026-05-04 16:47 51.49730 7.66337 37965 ft 416 kts 251°
2026-05-04 16:48 51.47251 7.53124 36688 ft 406 kts 250°
2026-05-04 16:48 51.46440 7.48818 36224 ft 401 kts 250°
2026-05-04 16:49 51.44828 7.40282 35177 ft 403 kts 250°
2026-05-04 16:49 51.43194 7.31665 34167 ft 406 kts 249°
2026-05-04 16:50 51.40480 7.23935 32913 ft 399 kts 232°
2026-05-04 16:50 51.37191 7.16683 32017 ft 406 kts 231°
2026-05-04 16:51 51.33836 7.09452 31011 ft 402 kts 231°
2026-05-04 16:51 51.32172 7.05889 30541 ft 398 kts 231°
2026-05-04 16:51 51.28881 6.98863 29508 ft 392 kts 231°
2026-05-04 16:52 51.25634 6.91952 28571 ft 386 kts 231°
2026-05-04 16:52 51.24026 6.88535 28123 ft 383 kts 230°
2026-05-04 16:53 51.20847 6.81794 27249 ft 378 kts 230°
2026-05-04 16:53 51.16140 6.71846 25970 ft 371 kts 230°
2026-05-04 16:54 51.14610 6.68622 25563 ft 369 kts 230°
2026-05-04 16:55 51.08447 6.55826 23935 ft 358 kts 223°
2026-05-04 16:55 51.04857 6.50343 23114 ft 354 kts 223°
2026-05-04 16:56 51.01404 6.44910 22358 ft 350 kts 223°
2026-05-04 16:56 50.96267 6.36775 21228 ft 342 kts 223°
2026-05-04 16:57 50.94587 6.34114 20860 ft 342 kts 223°
2026-05-04 16:57 50.91262 6.28862 20186 ft 338 kts 224°
2026-05-04 16:58 50.86278 6.21008 19110 ft 333 kts 224°
2026-05-04 16:58 50.85191 6.19298 18866 ft 333 kts 224°
2026-05-04 16:59 50.81395 6.13336 18042 ft 329 kts 224°
2026-05-04 17:00 50.75467 6.04053 16725 ft 324 kts 225°
2026-05-04 17:00 50.71049 5.96020 15705 ft 322 kts 229°
2026-05-04 17:01 50.68123 5.90714 15029 ft 319 kts 229°
2026-05-04 17:01 50.65877 5.84803 14258 ft 324 kts 260°
2026-05-04 17:02 50.67093 5.77996 13512 ft 334 kts 295°
2026-05-04 17:02 50.69193 5.71592 12858 ft 321 kts 293°
2026-05-04 17:03 50.70189 5.68503 12544 ft 312 kts 293°
2026-05-04 17:03 50.71160 5.65479 12225 ft 305 kts 293°
2026-05-04 17:03 50.73023 5.59666 11627 ft 292 kts 293°
2026-05-04 17:04 50.74828 5.54016 11022 ft 285 kts 293°
2026-05-04 17:04 50.76592 5.48482 10424 ft 279 kts 293°
2026-05-04 17:05 50.78318 5.43056 10135 ft 275 kts 293°
2026-05-04 17:05 50.80028 5.37665 9467 ft 273 kts 293°
2026-05-04 17:06 50.81724 5.32313 8793 ft 271 kts 293°
2026-05-04 17:06 50.82565 5.29653 8473 ft 269 kts 293°
2026-05-04 17:07 50.84232 5.24370 7823 ft 267 kts 293°
2026-05-04 17:07 50.84780 5.22632 7610 ft 266 kts 293°
2026-05-04 17:07 50.85868 5.19180 7333 ft 258 kts 293°
2026-05-04 17:07 50.86670 5.16629 7006 ft 259 kts 293°
2026-05-04 17:08 50.87471 5.14082 6721 ft 258 kts 294°
2026-05-04 17:08 50.89051 5.10072 6194 ft 258 kts 300°
2026-05-04 17:08 50.89598 5.08725 6029 ft 257 kts 300°
2026-05-04 17:09 50.90555 5.06351 5750 ft 255 kts 299°
2026-05-04 17:09 50.91501 5.03985 5490 ft 252 kts 299°
2026-05-04 17:09 50.92419 5.01682 5420 ft 243 kts 299°
2026-05-04 17:10 50.94130 4.97369 5316 ft 219 kts 299°
2026-05-04 17:10 50.96392 4.91721 4879 ft 188 kts 299°
2026-05-04 17:11 50.97089 4.89977 4575 ft 187 kts 299°
2026-05-04 17:11 50.97576 4.88115 4270 ft 181 kts 272°
2026-05-04 17:11 50.97157 4.84255 4032 ft 180 kts 252°
2026-05-04 17:12 50.96779 4.82367 3991 ft 180 kts 250°
2026-05-04 17:12 50.95959 4.78680 3627 ft 166 kts 249°
2026-05-04 17:13 50.94822 4.73718 3028 ft 157 kts 249°
2026-05-04 17:14 50.93738 4.69009 2456 ft 143 kts 248°
2026-05-04 17:14 50.93399 4.67540 2248 ft 142 kts 248°
2026-05-04 17:14 50.92729 4.64630 1869 ft 141 kts 248°
2026-05-04 17:15 50.92395 4.63185 1699 ft 141 kts 247°
2026-05-04 17:15 50.91736 4.60240 1292 ft 141 kts 248°
2026-05-04 17:16 50.91067 4.57331 917 ft 142 kts 248°
2026-05-04 17:16 50.90014 4.52849 307 ft 147 kts 253°
2026-05-04 17:17 50.89672 4.51362 176 ft 134 kts 250°
2026-05-04 17:17 50.89389 4.49640 173 ft 27 kts 310°
2026-05-04 17:18 50.89505 4.49383 166 ft 27 kts 307°
2026-05-04 17:18 50.89742 4.49186 149 ft 23 kts 15°
2026-05-04 17:19 50.90099 4.49329 133 ft 23 kts 14°
2026-05-04 17:19 50.90338 4.49333 128 ft 9 kts 263°
2026-05-04 17:20 50.90267 4.49042 129 ft 20 kts 246°
2026-05-04 17:20 50.90270 4.48780 124 ft 6 kts 338°
2026-05-04 17:20 50.90312 4.48751 122 ft 3 kts 336°
2026-05-04 17:21 50.90319 4.48747 121 ft 0 kts 336°